SCP
0 0 0 0 0 0 0 0 0 0 0 0 0 0 0 0 0 0 0 0 0 0 0 0 0 0 0 0 0 0 0 0 0 0 0 0 0 0 0 0 0 0 0
0 0 0 0 0 0 0 0 0 0 0 0 0 0 0 0 0 0 0 0 0 0 0 0 0 0 0 0 0 0 0 0 0 0 0 0 0 0 0 0 0 0 0
0 0 0 0 0 0 0 0 0 0 0 0 0 0 0 0 0 0 0 0 0 0 0 0 0 0 0 0 0 0 0 0 0 0 0 0 0 0 0 0 0 0 0
0 0 0 0 0 0 0 0 0 0 0 0 0 0 0 0 0 0 0 0 0 0 0 0 0 0 0 0 0 0 0 0 0 0 0 0 0 0 0 0 0 0 0
-0 0 0 0 0 0 0 0 0 0 0 0 0 0 0 0 0 0 0 0 0 0 0 0 0 0 0 0 0 0 0 0 0 0 0 0 0 0 0 0 0 0 0
0 0 0 0 0 0 0 0 0 0 0 0 0 0 0 0 0 0 0 0 0 0 0 0 0 0 0 0 0 0 0 0 0 0 0 0 0 0 0 0 0 0 0
0 0 0 0 0 0 0 0 0 0 0 0 0 0 0 0 0 0 0 0 0 0 0 0 0 0 0 0 0 0 0 0 0 0 0 0 0 0 0 0 0 0 0
0 0 0 0 0 0 0 0 0 0 0 0 0 0 0 0 0 0 0 0 0 0 0 0 0 0 0 0 0 0 0 0 0 0 0 0 0 0 0 0 0 0 0
-0 0 0 0 0 0 0 0 0 0 0 0 0 0 0 0 0 0 0 0 0 0 0 0 0 0 0 0 0 0 0 0 0 0 0 0 0 0 0 0 0 0 0
0 0 0 0 0 0 0 0 0 0 0 0 0 0 0 0 0 0 0 0 0 0 0 0 0 0 0 0 0 0 0 0 0 0 0 0 0 0 0 0 0 0 0
0 0 0 0 0 0 0 0 0 0 0 0 0 0 0 0 0 0 0 0 0 0 0 0 0 0 0 0 0 0 0 0 0 0 0 0 0 0 0 0 0 0 0
0 0 0 0 0 0 0 0 0 0 0 0 0 0 0 0 0 0 0 0 0 0 0 0 0 0 0 0 0 0 0 0 0 0 0 0 0 0 0 0 0 0 0
0 0 0 0 0 0 0 0 0 0 0 0 0 0 0 0 0 0 0 0 0 0 0 0 0 0 0 0 0 0 0 0 0 0 0 0 0 0 0 0 0 0 0
0 0 0 0 0 0 0 0 0 0 0 0 0 0 0 0 0 0 0 0 0 0 0 0 0 0 0 0 0 0 0 0 0 0 0 0 0 0 0 0 0 0 0
0 0 0 0 0 0 0 0 0 0 0 0 0 0 0 0 0 0 0 0 0 0 0 0 0 0 0 0 0 0 0 0 0 0 0 0 0 0 0 0 0 0 0
0 0 0 0 0 0 0 0 0 0 0 0 0 0 0 0 0 0 0 0 0 0 0 0 0 0 0 0 0 0 0 0 0 0 0 0 0 0 0 0 0 0 0
0 0 0 0 0 0 0 0 0 0 0 0 0 0 0 0 0 0 0 0 0 0 0 0 0 0 0 0 0 0 0 0 0 0 0 0 0 0 0 0 0 0 0
0 0 0 0 0 0 0 0 0 0 0 0 0 0 0 0 0 0 0 0 0 0 0 0 0 0 0 0 0 0 0 0 0 0 0 0 0 0 0 0 0 0 0
0 0 0 0 0 0 0 0 0 0 0 0 0 0 0 0 0 0 0 0 0 0 0 0 0 0 0 0 0 0 0 0 0 0 0 0 0 0 0 0 0 0 0
0 0 0 0 0 0 0 0 0 0 0 0 0 0 -0 -0 -0 -0 0 0 0 0 0 0 0 0 0 0 0 0 0 0 0 0 0 0 0 0 0 0 0 0 0
0 0 0 0 0 0 0 0 0 0 -0 -0 0 -0 -0 -0 -0 -0 0 0 0 0 0 0 0 0 0 0 0 0 0 0 0 0 0 0 0 0 0 0 0 0 0
0 0 0 0 0 0 0 0 0 -0 -0 -0 -0 -0 -0 -0 -0 -0 0 0 0 0 0 0 0 0 0 0 0 0 0 0 0 0 0 0 0 0 0 0 0 0 0
0 0 0 0 0 0 -0 0 -0 -0 -0 -0 -0 -0 -0 -0 0 0 0 0 0 0 0 0 0 0 0 0 0 0 0 0 0 0 0 0 0 0 0 0 0 0 0
0 0 0 0 0 0 -0 0 0 -0 -0 -0 -0 -0 -0 0 0 0 0 0 0 0 0 0 0 0 0 0 0 0 0 0 0 0 0 0 0 0 0 0 0 0 0
-0 -0 0 0 0 0 0 0 0 -0 -0 -0 -0 0 0 0 0 0 0 0 0 0 0 0 0 0 0 0 0 0 0 0 0 0 0 0 0 0 0 0 0 0 0
-0 0 0 -0 0 0 0 -0 -0 -0 -0 -0 0 0 0 0 0 0 0 0 0 0 0 0 0 0 0 0 0 0 0 0 0 0 0 0 0 0 0 0 0 0 0
Wind_Speed_500mb
36 79 85 77 73 88 82 84 82 85 84 78 78 76 73 71 68 65 60 60 56 56 56 52 50 49 43 39 36 34 34 33 28 26 20 13 3 4 5 4 4 5 5
66 43 82 91 85 95 92 86 82 82 91 85 82 81 78 76 67 64 61 60 60 56 57 53 52 48 44 42 38 37 38 35 34 24 20 20 13 6 6 8 8 6 9
61 52 41 86 88 95 94 89 86 86 94 86 87 82 81 78 75 69 65 66 57 53 51 52 51 49 45 41 39 38 37 37 36 30 18 14 11 22 11 9 9 11 13
75 72 48 57 86 91 90 90 89 90 85 88 91 90 89 92 86 76 72 67 63 58 54 53 51 49 48 45 44 40 34 30 27 30 26 12 7 18 17 16 9 9 15
74 87 62 53 65 82 89 87 90 86 85 98 96 94 92 90 84 77 76 71 65 59 55 54 53 51 49 46 38 33 31 28 20 14 11 16 22 20 15 18 17 11 15
52 73 71 60 67 75 89 86 88 83 83 97 101 95 94 92 87 83 78 72 66 60 55 53 53 52 49 43 38 35 28 24 16 13 19 20 19 17 12 12 13 10 10
50 28 65 64 72 76 91 91 87 85 85 90 98 95 93 81 81 78 80 75 67 61 58 56 55 47 39 37 34 30 29 27 20 22 20 15 13 13 11 11 11 8 7
62 52 37 16 73 80 85 93 85 82 86 91 100 97 91 79 81 78 80 76 70 65 61 56 49 45 40 38 33 33 26 20 18 18 16 16 15 12 10 8 5 3 6
70 65 61 47 26 84 93 90 86 87 95 98 103 101 93 84 78 79 81 78 70 64 58 53 50 46 42 42 34 23 26 26 22 19 16 13 14 11 10 10 8 9 2
65 75 65 58 37 72 86 88 91 92 100 106 106 97 90 82 75 82 81 76 68 63 59 54 49 45 43 36 34 33 29 23 20 15 11 12 11 10 10 11 14 16 14
65 65 69 53 41 61 85 84 84 87 98 111 106 99 89 82 77 76 73 69 68 65 60 57 49 47 38 37 34 30 26 19 16 13 10 8 9 8 11 15 18 21 24
55 58 57 42 34 58 85 86 87 87 95 101 97 95 87 80 77 71 74 71 72 70 48 55 53 44 39 35 29 24 22 16 13 10 7 4 8 13 15 19 24 27 29
44 41 29 22 50 70 81 85 84 94 102 97 99 93 87 80 78 79 79 76 64 55 62 52 45 40 36 31 26 20 17 13 10 6 6 9 12 16 21 25 28 30 32
27 12 11 28 49 62 72 77 79 84 90 90 87 84 79 84 89 89 80 62 66 63 53 48 42 34 30 25 20 17 12 8 7 8 7 11 17 22 26 28 31 36 39
12 8 21 31 42 56 60 64 66 72 75 83 83 92 102 101 93 78 72 72 64 55 49 42 38 31 26 21 14 11 8 7 7 7 13 19 24 28 32 36 38 42 46
16 18 28 36 48 54 57 60 63 70 75 85 96 101 97 91 78 78 75 66 59 49 44 37 32 28 22 16 11 9 7 5 9 15 19 22 27 32 34 37 40 44 41
28 30 40 52 60 68 68 78 83 89 95 105 107 93 79 84 84 73 65 59 54 48 41 34 27 22 18 14 9 5 5 9 13 16 22 28 31 34 39 40 42 40 36
47 45 54 66 73 78 85 93 93 102 104 98 87 84 84 82 75 66 59 54 49 42 35 29 24 18 15 10 4 6 8 12 16 21 25 29 33 37 41 43 44 46 45
52 59 68 79 87 93 99 106 103 93 83 80 83 79 76 76 68 59 53 48 41 36 29 25 21 15 11 8 7 9 11 16 20 25 29 34 38 39 44 46 50 53 50
57 66 73 83 90 96 95 90 80 77 83 81 74 67 64 63 60 54 47 42 34 30 25 21 17 10 8 6 8 12 13 17 23 27 33 38 41 42 43 45 55 56 54
50 59 68 78 80 73 65 73 76 73 69 69 66 62 57 55 50 48 41 35 29 24 21 16 13 8 5 6 9 14 21 26 30 33 34 37 43 43 41 34 49 50 48
37 43 54 59 54 56 62 66 64 65 63 62 60 57 53 50 47 39 35 29 22 19 17 13 10 7 4 11 20 25 27 31 30 33 38 40 42 43 42 47 52 43 59
36 40 47 50 48 47 43 57 60 57 58 59 58 54 50 46 38 31 26 21 20 17 15 11 8 9 12 17 20 24 29 32 36 38 40 42 44 48 53 53 52 58 62
31 36 41 44 47 52 41 47 55 53 53 53 51 49 46 44 33 21 18 17 18 14 11 10 9 11 14 16 20 23 27 31 33 33 35 41 47 49 51 53 53 54 56
29 30 34 42 48 45 41 43 44 43 43 44 45 45 39 30 22 21 20 14 12 11 8 6 8 10 13 18 25 29 32 35 40 42 43 45 46 46 48 49 49 49 50
26 27 30 32 36 37 39 42 39 33 30 37 38 34 26 17 15 13 16 14 10 7 6 5 6 12 16 21 26 28 31 36 39 41 42 43 46 50 54 56 58 54 52
Wind_Direction_500mb
280 244 232 231 216 211 217 210 207 209 209 207 205 201 198 196 201 200 205 208 209 212 212 214 220 227 226 228 227 222 217 207 198 179 148 132 130 281 285 323 339 329 340
274 293 235 221 216 208 215 218 216 209 207 210 208 206 196 197 204 199 204 211 209 213 213 219 224 229 227 225 226 221 212 197 185 191 181 159 154 198 286 314 316 330 339
268 272 241 218 217 208 212 218 216 209 209 207 206 203 199 201 201 203 208 206 212 212 217 220 222 224 223 222 215 205 200 206 200 192 180 165 174 180 219 261 304 329 340
256 259 256 236 223 213 210 220 218 212 212 205 209 208 205 204 204 206 209 209 210 210 215 220 220 218 216 209 200 196 205 210 206 192 193 182 201 182 184 214 251 306 332
251 257 243 237 232 222 205 214 221 213 208 208 215 210 213 211 212 211 208 210 208 211 218 218 217 214 203 196 190 181 170 162 166 148 122 226 198 201 192 180 202 253 298
286 258 248 235 231 227 208 210 219 216 207 211 218 213 217 215 214 212 206 204 206 210 210 209 207 198 192 183 174 157 142 143 145 167 194 192 189 187 191 169 183 240 286
331 328 260 229 228 225 214 210 217 216 210 214 218 214 221 222 222 217 209 206 204 203 203 204 194 187 182 169 155 152 160 140 163 168 166 166 158 145 147 153 176 192 204
328 315 307 313 237 224 224 212 214 219 215 214 214 216 219 221 218 216 209 207 205 199 197 184 180 170 157 147 147 136 129 159 159 154 148 142 129 119 112 99 86 125 187
317 309 301 289 274 232 226 221 216 212 216 215 215 215 214 217 213 210 207 204 199 192 176 169 163 152 150 140 124 139 138 139 147 147 134 120 105 81 58 42 20 12 337
311 308 301 290 270 227 224 225 221 210 205 211 213 209 210 207 210 208 203 197 187 171 162 153 145 143 132 123 136 136 138 148 138 124 114 93 81 63 41 14 1 354 345
308 307 303 295 258 218 219 209 201 208 202 206 206 207 202 201 207 202 194 180 164 156 147 142 142 122 131 137 136 142 140 138 136 121 100 83 64 37 18 10 356 345 336
307 303 305 298 240 213 203 205 202 205 205 201 202 197 200 193 192 182 163 155 149 141 140 137 121 139 139 137 143 142 138 140 127 122 105 66 32 19 4 355 345 339 332
309 307 287 190 191 180 184 187 192 195 192 200 198 189 185 183 166 154 148 145 140 135 127 123 139 141 142 144 141 144 138 134 124 105 62 26 13 355 349 344 337 332 329
312 300 187 156 169 168 167 172 179 185 180 178 173 169 156 152 146 148 143 141 135 123 133 137 139 144 140 141 140 135 131 119 88 56 19 356 351 346 339 335 334 333 329
345 115 136 144 153 157 160 167 167 166 162 153 148 145 146 143 139 137 138 131 122 134 136 141 141 143 143 132 129 126 107 77 43 4 350 346 337 335 337 339 335 330 329
47 103 127 133 132 139 139 145 143 145 147 144 138 138 137 131 135 136 128 132 134 136 142 142 142 137 130 125 120 92 66 26 352 350 339 331 334 341 340 331 328 329 331
74 99 119 126 129 134 139 137 140 142 140 136 134 135 136 134 132 127 135 132 140 142 141 137 131 131 126 118 97 66 5 352 345 334 334 340 337 331 328 328 325 327 328
76 96 115 125 128 131 134 134 134 136 132 131 133 134 136 127 128 137 141 138 138 137 133 131 130 124 115 104 85 13 354 341 342 341 336 333 333 334 328 327 329 328 325
92 100 112 120 126 130 132 130 131 129 127 131 132 136 130 135 137 135 137 138 135 132 135 131 122 119 112 81 30 357 347 347 338 335 335 334 334 330 326 329 323 322 321
101 110 117 122 125 126 128 128 129 131 131 135 133 136 133 130 133 136 136 132 138 137 129 123 121 103 79 48 14 0 345 339 339 336 334 331 327 328 328 323 319 319 322
98 112 116 120 126 129 127 126 129 128 132 132 132 132 132 132 134 136 140 136 133 130 128 123 112 99 61 22 1 355 353 351 340 330 327 330 328 325 325 322 313 318 312
107 116 122 125 128 127 125 125 130 129 132 133 131 134 138 138 137 138 130 129 134 134 126 122 116 112 68 17 3 353 344 332 332 338 335 330 327 326 323 318 317 315 312
107 117 125 129 131 129 125 131 128 134 136 137 137 138 136 132 130 135 130 138 135 132 127 128 104 59 25 360 352 341 335 342 342 336 334 334 329 326 323 322 318 313 311
115 123 127 132 133 128 134 136 137 144 144 141 141 140 142 139 135 127 125 146 139 128 109 77 49 23 5 351 342 341 343 344 341 342 338 335 331 328 321 317 315 312 311
120 128 132 133 135 136 140 137 138 141 142 142 143 148 149 143 135 139 140 130 111 96 70 46 9 359 352 344 350 352 352 351 350 351 344 338 333 331 327 324 320 317 315
128 138 139 140 140 144 150 145 144 147 149 149 149 150 153 152 149 149 157 147 125 95 51 356 354 357 353 360 357 354 352 352 351 347 342 341 339 337 332 330 327 324 321
Wind_Speed_850mb
36 79 85 77 73 88 82 84 82 85 84 78 78 76 73 71 68 65 60 60 56 56 56 52 50 49 43 39 36 34 34 33 28 26 20 13 3 4 5 4 4 5 5
66 43 82 91 85 95 92 86 82 82 91 85 82 81 78 76 67 64 61 60 60 56 57 53 52 48 44 42 38 37 38 35 34 24 20 20 13 6 6 8 8 6 9
61 52 41 86 88 95 94 89 86 86 94 86 87 82 81 78 75 69 65 66 57 53 51 52 51 49 45 41 39 38 37 37 36 30 18 14 11 22 11 9 9 11 13
75 72 48 57 86 91 90 90 89 90 85 88 91 90 89 92 86 76 72 67 63 58 54 53 51 49 48 45 44 40 34 30 27 30 26 12 7 18 17 16 9 9 15
74 87 62 53 65 82 89 87 90 86 85 98 96 94 92 90 84 77 76 71 65 59 55 54 53 51 49 46 38 33 31 28 20 14 11 16 22 20 15 18 17 11 15
52 73 71 60 67 75 89 86 88 83 83 97 101 95 94 92 87 83 78 72 66 60 55 53 53 52 49 43 38 35 28 24 16 13 19 20 19 17 12 12 13 10 10
50 28 65 64 72 76 91 91 87 85 85 90 98 95 93 81 81 78 80 75 67 61 58 56 55 47 39 37 34 30 29 27 20 22 20 15 13 13 11 11 11 8 7
62 52 37 16 73 80 85 93 85 82 86 91 100 97 91 79 81 78 80 76 70 65 61 56 49 45 40 38 33 33 26 20 18 18 16 16 15 12 10 8 5 3 6
70 65 61 47 26 84 93 90 86 87 95 98 103 101 93 84 78 79 81 78 70 64 58 53 50 46 42 42 34 23 26 26 22 19 16 13 14 11 10 10 8 9 2
65 75 65 58 37 72 86 88 91 92 100 106 106 97 90 82 75 82 81 76 68 63 59 54 49 45 43 36 34 33 29 23 20 15 11 12 11 10 10 11 14 16 14
65 65 69 53 41 61 85 84 84 87 98 111 106 99 89 82 77 76 73 69 68 65 60 57 49 47 38 37 34 30 26 19 16 13 10 8 9 8 11 15 18 21 24
55 58 57 42 34 58 85 86 87 87 95 101 97 95 87 80 77 71 74 71 72 70 48 55 53 44 39 35 29 24 22 16 13 10 7 4 8 13 15 19 24 27 29
44 41 29 22 50 70 81 85 84 94 102 97 99 93 87 80 78 79 79 76 64 55 62 52 45 40 36 31 26 20 17 13 10 6 6 9 12 16 21 25 28 30 32
27 12 11 28 49 62 72 77 79 84 90 90 87 84 79 84 89 89 80 62 66 63 53 48 42 34 30 25 20 17 12 8 7 8 7 11 17 22 26 28 31 36 39
12 8 21 31 42 56 60 64 66 72 75 83 83 92 102 101 93 78 72 72 64 55 49 42 38 31 26 21 14 11 8 7 7 7 13 19 24 28 32 36 38 42 46
16 18 28 36 48 54 57 60 63 70 75 85 96 101 97 91 78 78 75 66 59 49 44 37 32 28 22 16 11 9 7 5 9 15 19 22 27 32 34 37 40 44 41
28 30 40 52 60 68 68 78 83 89 95 105 107 93 79 84 84 73 65 59 54 48 41 34 27 22 18 14 9 5 5 9 13 16 22 28 31 34 39 40 42 40 36
47 45 54 66 73 78 85 93 93 102 104 98 87 84 84 82 75 66 59 54 49 42 35 29 24 18 15 10 4 6 8 12 16 21 25 29 33 37 41 43 44 46 45
52 59 68 79 87 93 99 106 103 93 83 80 83 79 76 76 68 59 53 48 41 36 29 25 21 15 11 8 7 9 11 16 20 25 29 34 38 39 44 46 50 53 50
57 66 73 83 90 96 95 90 80 77 83 81 74 67 64 63 60 54 47 42 34 30 25 21 17 10 8 6 8 12 13 17 23 27 33 38 41 42 43 45 55 56 54
50 59 68 78 80 73 65 73 76 73 69 69 66 62 57 55 50 48 41 35 29 24 21 16 13 8 5 6 9 14 21 26 30 33 34 37 43 43 41 34 49 50 48
37 43 54 59 54 56 62 66 64 65 63 62 60 57 53 50 47 39 35 29 22 19 17 13 10 7 4 11 20 25 27 31 30 33 38 40 42 43 42 47 52 43 59
36 40 47 50 48 47 43 57 60 57 58 59 58 54 50 46 38 31 26 21 20 17 15 11 8 9 12 17 20 24 29 32 36 38 40 42 44 48 53 53 52 58 62
31 36 41 44 47 52 41 47 55 53 53 53 51 49 46 44 33 21 18 17 18 14 11 10 9 11 14 16 20 23 27 31 33 33 35 41 47 49 51 53 53 54 56
29 30 34 42 48 45 41 43 44 43 43 44 45 45 39 30 22 21 20 14 12 11 8 6 8 10 13 18 25 29 32 35 40 42 43 45 46 46 48 49 49 49 50
26 27 30 32 36 37 39 42 39 33 30 37 38 34 26 17 15 13 16 14 10 7 6 5 6 12 16 21 26 28 31 36 39 41 42 43 46 50 54 56 58 54 52
Wind_Direction_850mb
280 244 232 231 216 211 217 210 207 209 209 207 205 201 198 196 201 200 205 208 209 212 212 214 220 227 226 228 227 222 217 207 198 179 148 132 130 281 285 323 339 329 340
274 293 235 221 216 208 215 218 216 209 207 210 208 206 196 197 204 199 204 211 209 213 213 219 224 229 227 225 226 221 212 197 185 191 181 159 154 198 286 314 316 330 339
268 272 241 218 217 208 212 218 216 209 209 207 206 203 199 201 201 203 208 206 212 212 217 220 222 224 223 222 215 205 200 206 200 192 180 165 174 180 219 261 304 329 340
256 259 256 236 223 213 210 220 218 212 212 205 209 208 205 204 204 206 209 209 210 210 215 220 220 218 216 209 200 196 205 210 206 192 193 182 201 182 184 214 251 306 332
251 257 243 237 232 222 205 214 221 213 208 208 215 210 213 211 212 211 208 210 208 211 218 218 217 214 203 196 190 181 170 162 166 148 122 226 198 201 192 180 202 253 298
286 258 248 235 231 227 208 210 219 216 207 211 218 213 217 215 214 212 206 204 206 210 210 209 207 198 192 183 174 157 142 143 145 167 194 192 189 187 191 169 183 240 286
331 328 260 229 228 225 214 210 217 216 210 214 218 214 221 222 222 217 209 206 204 203 203 204 194 187 182 169 155 152 160 140 163 168 166 166 158 145 147 153 176 192 204
328 315 307 313 237 224 224 212 214 219 215 214 214 216 219 221 218 216 209 207 205 199 197 184 180 170 157 147 147 136 129 159 159 154 148 142 129 119 112 99 86 125 187
317 309 301 289 274 232 226 221 216 212 216 215 215 215 214 217 213 210 207 204 199 192 176 169 163 152 150 140 124 139 138 139 147 147 134 120 105 81 58 42 20 12 337
311 308 301 290 270 227 224 225 221 210 205 211 213 209 210 207 210 208 203 197 187 171 162 153 145 143 132 123 136 136 138 148 138 124 114 93 81 63 41 14 1 354 345
308 307 303 295 258 218 219 209 201 208 202 206 206 207 202 201 207 202 194 180 164 156 147 142 142 122 131 137 136 142 140 138 136 121 100 83 64 37 18 10 356 345 336
307 303 305 298 240 213 203 205 202 205 205 201 202 197 200 193 192 182 163 155 149 141 140 137 121 139 139 137 143 142 138 140 127 122 105 66 32 19 4 355 345 339 332
309 307 287 190 191 180 184 187 192 195 192 200 198 189 185 183 166 154 148 145 140 135 127 123 139 141 142 144 141 144 138 134 124 105 62 26 13 355 349 344 337 332 329
312 300 187 156 169 168 167 172 179 185 180 178 173 169 156 152 146 148 143 141 135 123 133 137 139 144 140 141 140 135 131 119 88 56 19 356 351 346 339 335 334 333 329
345 115 136 144 153 157 160 167 167 166 162 153 148 145 146 143 139 137 138 131 122 134 136 141 141 143 143 132 129 126 107 77 43 4 350 346 337 335 337 339 335 330 329
47 103 127 133 132 139 139 145 143 145 147 144 138 138 137 131 135 136 128 132 134 136 142 142 142 137 130 125 120 92 66 26 352 350 339 331 334 341 340 331 328 329 331
74 99 119 126 129 134 139 137 140 142 140 136 134 135 136 134 132 127 135 132 140 142 141 137 131 131 126 118 97 66 5 352 345 334 334 340 337 331 328 328 325 327 328
76 96 115 125 128 131 134 134 134 136 132 131 133 134 136 127 128 137 141 138 138 137 133 131 130 124 115 104 85 13 354 341 342 341 336 333 333 334 328 327 329 328 325
92 100 112 120 126 130 132 130 131 129 127 131 132 136 130 135 137 135 137 138 135 132 135 131 122 119 112 81 30 357 347 347 338 335 335 334 334 330 326 329 323 322 321
101 110 117 122 125 126 128 128 129 131 131 135 133 136 133 130 133 136 136 132 138 137 129 123 121 103 79 48 14 0 345 339 339 336 334 331 327 328 328 323 319 319 322
98 112 116 120 126 129 127 126 129 128 132 132 132 132 132 132 134 136 140 136 133 130 128 123 112 99 61 22 1 355 353 351 340 330 327 330 328 325 325 322 313 318 312
107 116 122 125 128 127 125 125 130 129 132 133 131 134 138 138 137 138 130 129 134 134 126 122 116 112 68 17 3 353 344 332 332 338 335 330 327 326 323 318 317 315 312
107 117 125 129 131 129 125 131 128 134 136 137 137 138 136 132 130 135 130 138 135 132 127 128 104 59 25 360 352 341 335 342 342 336 334 334 329 326 323 322 318 313 311
115 123 127 132 133 128 134 136 137 144 144 141 141 140 142 139 135 127 125 146 139 128 109 77 49 23 5 351 342 341 343 344 341 342 338 335 331 328 321 317 315 312 311
120 128 132 133 135 136 140 137 138 141 142 142 143 148 149 143 135 139 140 130 111 96 70 46 9 359 352 344 350 352 352 351 350 351 344 338 333 331 327 324 320 317 315
128 138 139 140 140 144 150 145 144 147 149 149 149 150 153 152 149 149 157 147 125 95 51 356 354 357 353 360 357 354 352 352 351 347 342 341 339 337 332 330 327 324 321